[[{"header":{"parameterUnit":"m.s-1","parameterCategory":1,"la1":30.2991,"la2":30.254,"lo1":-89.0895,"lo2":-89.0444,"dy":0.0017,"dx":0.0017,"nx":28,"ny":28,"refTime":"2025-04-10T21:00:00:Z","depth":0,"parameterNumber":2,"parameterNumberName":"U-component_of_WINDS"},"data":[0,0,0,0,0,0,0,0,0,0,0,0,0,0,0,0,0,0,0,0,0,0,0,0,0,0,0,0,0,0,0,0,0,0,0,0,0,0,0,0,0,0,0,0,0,0,0,0,0,0,0,0,0,0,0,0,0,0,3.2327,3.2328,0,3.2428,3.2429,3.243,3.2461,3.2461,3.246,3.246,3.2564,3.2567,3.257,0,0,0,0,0,0,0,0,0,0,0,0,0,3.2165,3.2168,3.2327,3.2328,3.233,3.2428,3.2429,3.243,3.2462,3.2461,3.246,3.246,3.2563,3.2567,3.2571,0,0,0,0,0,0,0,0,0,0,0,0,0,3.2247,3.2168,3.2327,3.2357,3.2361,3.2427,3.2429,3.2431,3.2462,3.2461,3.246,3.2459,3.2562,3.2566,3.2571,3.2616,0,0,3.2586,3.2588,0,0,0,0,0,0,0,0,3.2243,3.2253,3.2351,3.2355,3.2359,3.2431,3.241,3.2493,3.2462,3.2423,3.246,3.2459,3.2521,3.2529,3.2549,3.2621,3.2625,3.2586,3.2589,3.2591,3.2593,0,0,0,0,0,0,0,3.2237,3.2249,3.2367,3.2353,3.2358,3.2366,3.2377,3.2426,3.2475,3.2427,3.2429,3.2441,3.2523,3.2545,3.2552,3.2627,3.2586,3.2591,3.2594,3.2595,3.2742,3.2743,0,0,0,0,0,0,3.2226,3.2244,3.2364,3.237,3.2298,3.237,3.2382,3.2409,3.2474,3.2484,3.2441,3.2442,3.2537,3.2546,3.2556,3.2613,3.2591,3.2596,3.2599,3.2741,3.2742,3.2743,0,0,0,0,0,0,3.2222,3.2236,3.236,3.2308,3.2324,3.2373,3.2403,3.2411,3.2433,3.2485,3.2494,3.2454,3.2536,3.2549,3.2601,3.2617,3.2598,3.2603,3.274,3.2741,3.2743,3.2728,0,0,0,0,0,0,3.2217,3.2235,3.2251,3.2308,3.2327,3.2402,3.2404,3.2414,3.2441,3.2443,3.25,3.2509,3.2537,3.2594,3.2606,3.2624,3.2606,3.2739,3.274,3.2742,3.2727,3.2729,3.273,0,0,0,0,0,3.2211,3.2243,3.2252,3.2266,3.2348,3.2403,3.2414,3.2445,3.2442,3.246,3.2494,3.2507,3.2614,3.2599,3.2613,3.2632,3.2738,3.274,3.2742,3.2726,3.2728,3.273,0,0,0,0,0,0,3.2186,3.2251,3.2261,3.2312,3.2352,3.2408,3.2431,3.2446,3.2488,3.2488,3.2525,3.2538,3.2588,3.2615,3.2597,3.268,3.2676,3.2681,3.266,3.2662,3.2663,3.2655,3.261,0,0,0,0,0,3.2186,3.2225,3.2279,3.2319,3.2338,3.2381,3.2406,3.2427,3.247,3.2487,3.2525,3.2567,3.261,3.2638,3.268,3.2732,3.2745,3.2752,3.2754,3.2755,3.2758,3.2789,3.2793,3.2751,3.2751,3.275,0,0,3.2187,3.2227,3.2249,3.2315,3.2348,3.2388,3.2395,3.2437,3.2467,3.2494,3.2545,3.2575,3.2624,3.2677,3.2702,3.2701,3.2774,3.2757,3.2758,3.2761,3.2792,3.2796,3.28,3.2752,3.2752,3.2752,0,0,3.221,3.2243,3.228,3.2314,3.2365,3.2394,3.2403,3.2458,3.2478,3.2531,3.2552,3.259,3.2663,3.2698,3.2725,3.2763,3.2777,3.2776,3.2783,3.2813,3.2816,3.282,3.2834,3.2839,3.278,3.278,3.278,0,3.2204,3.2264,3.2298,3.2339,3.2368,3.2394,3.2433,3.2464,3.2526,3.2546,3.2545,3.2639,3.2674,3.2736,3.2745,3.2766,3.2779,3.2769,3.2813,3.2817,3.282,3.2834,3.284,3.2779,3.2779,3.2779,3.278,0,3.2256,3.2298,3.2322,3.2382,3.2413,3.2453,3.2493,3.2522,3.2541,3.257,3.2624,3.2668,3.272,3.2737,3.2755,3.2802,3.28,3.2806,3.2803,3.2823,3.2837,3.2843,3.2779,3.2779,3.2779,3.2779,0,0,3.2263,3.2342,3.2351,3.2379,3.2438,3.2471,3.2513,3.2565,3.2589,3.2632,3.2668,3.2731,3.2737,3.2768,3.2791,3.2817,3.2846,3.282,3.2822,3.2824,3.2902,3.2897,3.2903,3.2856,3.2858,3.2859,3.2898,0,3.2293,3.2368,3.24,3.2461,3.2501,3.2528,3.2565,3.2606,3.2635,3.2674,3.2707,3.2751,3.2755,3.2774,3.2801,3.2837,3.2862,3.2835,3.2892,3.2893,3.2878,3.291,3.2904,3.2939,3.2903,3.2904,3.2905,0,3.2337,3.2381,3.2445,3.2501,3.2519,3.2551,3.2602,3.2639,3.2687,3.2707,3.2742,3.2765,3.2811,3.2806,3.2871,3.2852,3.2877,3.2899,3.2901,3.2907,3.29,3.2917,3.2951,3.2956,3.2914,3.2913,3.2913,0,3.2337,3.2411,3.246,3.2483,3.255,3.2572,3.2601,3.2648,3.2678,3.2723,3.2743,3.2792,3.282,3.2858,3.2894,3.2887,3.2957,3.2954,3.2975,3.2974,3.2988,3.2986,3.3026,3.3004,3.3004,3.3004,3.3004,0,3.2366,3.2405,3.2461,3.249,3.2535,3.2573,3.2616,3.2647,3.269,3.2727,3.2754,3.2789,3.2834,3.2875,3.2904,3.2954,3.2966,3.2984,3.2991,3.2982,3.2979,3.2998,3.2997,3.3006,3.3005,3.3005,3.3005,0,3.2373,3.2411,3.2466,3.2526,3.2541,3.2572,3.2623,3.2654,3.2685,3.2732,3.2746,3.2795,3.2845,3.2885,3.295,3.297,3.3023,3.3031,3.3006,3.301,3.3028,3.3026,3.3082,3.3092,3.3063,3.3063,3.3063,0,3.2389,3.2419,3.2482,3.2509,3.2538,3.258,3.2611,3.265,3.2681,3.274,3.2764,3.2816,3.2859,3.2938,3.298,3.303,3.304,3.3056,3.3048,3.3038,3.3041,3.3038,3.3042,3.3057,3.3057,3.3057,3.3057,0,3.2413,3.2432,3.2474,3.2525,3.256,3.2602,3.2644,3.2665,3.2712,3.2746,3.2797,3.2831,3.2898,3.295,3.3005,3.3036,3.3055,3.306,3.3067,3.3057,3.3042,3.3051,3.3008,3.3058,3.3058,3.3058,3.3058,3.3058,3.2426,3.2454,3.2503,3.2551,3.2587,3.2626,3.2658,3.2695,3.2738,3.2795,3.2816,3.2869,3.2919,3.2995,3.3027,3.307,3.3071,3.3082,3.3085,3.3087,3.3086,3.3036,3.308,3.308,3.308,3.308,3.308,0,3.2452,3.2485,3.2529,3.2587,3.2625,3.264,3.2688,3.2718,3.2764,3.2809,3.2852,3.2912,3.2962,3.301,3.3063,3.3088,3.3099,3.3101,3.3099,3.3107,3.3081,3.3069,3.3092,3.3092,3.3092,3.3092,3.3092,3.3092,3.247,3.252,3.2545,3.2613,3.2647,3.2699,3.2725,3.2762,3.2798,3.2864,3.2906,3.2937,3.2983,3.304,3.3088,3.3101,3.3119,3.312,3.3135,3.311,3.3108,3.3107,3.3096,3.3124,3.3124,3.3157,3.3157,3.3157]},{"header":{"parameterUnit":"m.s-1","parameterCategory":1,"la1":30.2991,"la2":30.254,"lo1":-89.0895,"lo2":-89.0444,"dy":0.0017,"dx":0.0017,"nx":28,"ny":28,"refTime":"2025-04-10T21:00:00:Z","depth":0,"parameterNumber":3,"parameterNumberName":"V-component_of_WINDS"},"data":[0,0,0,0,0,0,0,0,0,0,0,0,0,0,0,0,0,0,0,0,0,0,0,0,0,0,0,0,0,0,0,0,0,0,0,0,0,0,0,0,0,0,0,0,0,0,0,0,0,0,0,0,0,0,0,0,0,0,-5.8323,-5.8324,0,-5.8399,-5.84,-5.8401,-5.8414,-5.8413,-5.8413,-5.8412,-5.8484,-5.8486,-5.8489,0,0,0,0,0,0,0,0,0,0,0,0,0,-5.8186,-5.8188,-5.8323,-5.8324,-5.8325,-5.8399,-5.84,-5.8401,-5.8414,-5.8413,-5.8412,-5.8412,-5.8483,-5.8486,-5.8489,0,0,0,0,0,0,0,0,0,0,0,0,0,-5.8252,-5.8189,-5.8323,-5.8341,-5.8343,-5.8399,-5.84,-5.8401,-5.8414,-5.8413,-5.8412,-5.8411,-5.8482,-5.8486,-5.8489,-5.8531,0,0,-5.8501,-5.8502,0,0,0,0,0,0,0,0,-5.8248,-5.8257,-5.8337,-5.834,-5.8342,-5.8396,-5.8378,-5.8445,-5.8414,-5.8387,-5.8412,-5.8411,-5.8455,-5.8461,-5.8477,-5.8534,-5.8537,-5.8501,-5.8503,-5.8505,-5.8506,0,0,0,0,0,0,0,-5.8243,-5.8254,-5.8353,-5.8338,-5.8341,-5.8344,-5.8352,-5.8391,-5.8425,-5.8389,-5.839,-5.84,-5.8456,-5.8473,-5.8479,-5.8538,-5.8501,-5.8504,-5.8507,-5.8508,-5.8636,-5.8637,0,0,0,0,0,0,-5.8236,-5.825,-5.8351,-5.8355,-5.8292,-5.8347,-5.8356,-5.838,-5.8425,-5.8431,-5.84,-5.84,-5.8467,-5.8474,-5.8481,-5.8535,-5.8505,-5.8508,-5.851,-5.8635,-5.8636,-5.8638,0,0,0,0,0,0,-5.8233,-5.8245,-5.8348,-5.8303,-5.8316,-5.835,-5.8377,-5.8382,-5.8399,-5.8433,-5.8439,-5.8412,-5.8467,-5.8476,-5.852,-5.8537,-5.851,-5.8513,-5.8634,-5.8635,-5.8637,-5.864,0,0,0,0,0,0,-5.8229,-5.8244,-5.8261,-5.8303,-5.8319,-5.8386,-5.8378,-5.8384,-5.8406,-5.8406,-5.8445,-5.8451,-5.8467,-5.8514,-5.8523,-5.8542,-5.8516,-5.8632,-5.8634,-5.8636,-5.8639,-5.8642,-5.8645,0,0,0,0,0,-5.8224,-5.8257,-5.8262,-5.8274,-5.8341,-5.8387,-5.8395,-5.8415,-5.8407,-5.8424,-5.8447,-5.845,-5.8534,-5.8518,-5.8529,-5.8549,-5.8631,-5.8634,-5.8636,-5.8638,-5.8642,-5.8645,0,0,0,0,0,0,-5.8213,-5.8263,-5.8269,-5.8316,-5.8348,-5.8389,-5.841,-5.8418,-5.845,-5.8448,-5.847,-5.8478,-5.8521,-5.8539,-5.8521,-5.8593,-5.8582,-5.8587,-5.8579,-5.8583,-5.8586,-5.8581,-5.8519,0,0,0,0,0,-5.8217,-5.8251,-5.8292,-5.833,-5.8346,-5.8376,-5.8396,-5.8409,-5.8441,-5.8454,-5.8479,-5.8509,-5.8543,-5.8564,-5.8596,-5.8642,-5.8651,-5.8661,-5.8664,-5.8666,-5.867,-5.8697,-5.8702,-5.8646,-5.8646,-5.8646,0,0,-5.8223,-5.8255,-5.8275,-5.8329,-5.8355,-5.8389,-5.8386,-5.8422,-5.8448,-5.8459,-5.8502,-5.8522,-5.8557,-5.8602,-5.8623,-5.8619,-5.8688,-5.867,-5.8671,-5.8674,-5.87,-5.8706,-5.871,-5.8648,-5.8648,-5.8647,0,0,-5.8253,-5.828,-5.8316,-5.8343,-5.8383,-5.8403,-5.8412,-5.8453,-5.8468,-5.8512,-5.8522,-5.8552,-5.8608,-5.8634,-5.8653,-5.8697,-5.8701,-5.8706,-5.8722,-5.8748,-5.8752,-5.8756,-5.8772,-5.8778,-5.871,-5.871,-5.871,0,-5.8255,-5.8309,-5.8333,-5.837,-5.8394,-5.8408,-5.8444,-5.8468,-5.8516,-5.8532,-5.8527,-5.86,-5.8624,-5.8676,-5.8688,-5.8703,-5.8713,-5.8701,-5.875,-5.8754,-5.8758,-5.8774,-5.878,-5.8711,-5.8711,-5.871,-5.871,0,-5.8311,-5.8349,-5.8372,-5.8422,-5.8448,-5.8484,-5.8513,-5.8536,-5.8548,-5.8568,-5.8614,-5.8644,-5.8684,-5.8697,-5.8707,-5.8752,-5.8748,-5.8746,-5.8735,-5.8764,-5.8779,-5.8785,-5.8711,-5.8711,-5.8711,-5.8711,0,0,-5.8333,-5.8398,-5.8406,-5.843,-5.8477,-5.8505,-5.8543,-5.8584,-5.8605,-5.8638,-5.8669,-5.8719,-5.8719,-5.8742,-5.8755,-5.8778,-5.8811,-5.8773,-5.8774,-5.878,-5.8863,-5.8864,-5.887,-5.8815,-5.8816,-5.8817,-5.886,0,-5.8369,-5.8438,-5.8462,-5.8518,-5.8554,-5.857,-5.8602,-5.8634,-5.8655,-5.8687,-5.8709,-5.8744,-5.8741,-5.8755,-5.8779,-5.8802,-5.8828,-5.8799,-5.8843,-5.8845,-5.8834,-5.8878,-5.8879,-5.8918,-5.8866,-5.8867,-5.8868,0,-5.8419,-5.8457,-5.8518,-5.8563,-5.8579,-5.8608,-5.8649,-5.868,-5.8717,-5.873,-5.8758,-5.877,-5.8809,-5.8797,-5.8851,-5.8831,-5.8851,-5.8865,-5.8867,-5.8872,-5.8858,-5.8884,-5.8931,-5.8937,-5.8877,-5.8876,-5.8876,0,-5.843,-5.8496,-5.8542,-5.8561,-5.8615,-5.8635,-5.8658,-5.8694,-5.8718,-5.8754,-5.877,-5.8809,-5.883,-5.8859,-5.8881,-5.887,-5.8934,-5.8923,-5.8945,-5.8945,-5.8957,-5.8956,-5.9008,-5.897,-5.897,-5.897,-5.8969,0,-5.8468,-5.8505,-5.8548,-5.8576,-5.8618,-5.8645,-5.8685,-5.8709,-5.8741,-5.8774,-5.8789,-5.8818,-5.8846,-5.8879,-5.8896,-5.8939,-5.8948,-5.896,-5.8964,-5.8958,-5.8957,-5.8971,-5.8969,-5.8971,-5.8971,-5.8971,-5.897,0,-5.8487,-5.8517,-5.8568,-5.8616,-5.8629,-5.8658,-5.8699,-5.8726,-5.8749,-5.879,-5.8801,-5.8835,-5.8875,-5.8901,-5.8951,-5.8963,-5.901,-5.9013,-5.8998,-5.9,-5.9021,-5.9019,-5.9084,-5.9094,-5.9049,-5.9049,-5.905,0,-5.8508,-5.8538,-5.859,-5.8615,-5.8639,-5.8677,-5.8703,-5.873,-5.8757,-5.8803,-5.8825,-5.8867,-5.8901,-5.8964,-5.8993,-5.9032,-5.9036,-5.9056,-5.9042,-5.9036,-5.9037,-5.9035,-5.9038,-5.9058,-5.9059,-5.9059,-5.9059,0,-5.8544,-5.8559,-5.8597,-5.8641,-5.8673,-5.8708,-5.8744,-5.8762,-5.8796,-5.8824,-5.8867,-5.8895,-5.8948,-5.8989,-5.9031,-5.9053,-5.9062,-5.9064,-5.9071,-5.9066,-5.9056,-5.9063,-5.9005,-5.9062,-5.9062,-5.9062,-5.9061,-5.9061,-5.8565,-5.8593,-5.8635,-5.8678,-5.8709,-5.8742,-5.8771,-5.8799,-5.8836,-5.8883,-5.8897,-5.8942,-5.8979,-5.9038,-5.9061,-5.9095,-5.9093,-5.9103,-5.9105,-5.9108,-5.9108,-5.9052,-5.9103,-5.9103,-5.9103,-5.9103,-5.9103,0,-5.8602,-5.8631,-5.867,-5.8721,-5.8755,-5.8764,-5.8804,-5.8831,-5.8871,-5.8907,-5.8942,-5.8992,-5.9033,-5.9066,-5.9108,-5.9129,-5.9135,-5.9139,-5.9138,-5.9143,-5.9108,-5.9098,-5.9135,-5.9135,-5.9135,-5.9135,-5.9135,-5.9135,-5.8625,-5.8674,-5.8694,-5.8757,-5.8785,-5.8832,-5.8854,-5.8885,-5.8914,-5.897,-5.9006,-5.9028,-5.9063,-5.9108,-5.9146,-5.9154,-5.9169,-5.9173,-5.9183,-5.9149,-5.9145,-5.9142,-5.9133,-5.9176,-5.9176,-5.9215,-5.9215,-5.9216]}]]